Voltar ao catálogo

COSMOS 2266

AtivoNavegaçãoPO
NORAD 22888·PAYLOAD·🇷🇺 Russia

Lançado Nov 2, 1993 de Plesetsk Cosmodrome

Loading…

Próximas Passagens (próximas 24 horas)

TLE

AtualizadoSource: Space-Track

Época: Sep 14, 2026, 19:38 UTC

1 22888U 93070A   26257.81869459  .00000058  00000-0  44682-4 0  9990
2 22888  82.9544  14.8445 0046847 297.8925 227.4965 13.75181901646343

Acompanhe COSMOS 2266 em tempo real com AllMySat

Download on the App Store